Regional Weather Roundup
Issued by NWS

Home | Current Version | Previous Version | Graphics & Text | Print | Product List | Glossary On
Versions: 1 2 3 4 5 6 7 8 9 10 11 12 13 14 15 16 17 18 19 20 21 22 23 24 25 26 27 28 29 30 31 32 33 34 35 36 37 38 39 40 41 42 43 44 45 46 47 48 49 50
000
ASUS45 KTFX 140410
RWRMT
MONTANA REGIONAL WEATHER ROUNDUP
NATIONAL WEATHER SERVICE GREAT FALLS MT
900 PM MST SAT FEB 13 2016

NOTE: "FAIR" INDICATES FEW OR NO CLOUDS BELOW 12000 FEET WITH NO
SIGNIFICANT WEATHER AND/OR OBSTRUCTIONS TO VISIBILITY.

MTZ001>007-043-140500-
WEST OF THE DIVIDE

CITY           SKY/WX    TMP DP  RH WIND       PRES   REMARKS
KALISPELL      CLOUDY    37  28  70 SW10      30.06F WCI  30
MISSOULA       CLOUDY    41  25  53 CALM      30.12F
BUTTE          CLOUDY    30  16  56 CALM      30.08F
MULLAN PASS    LGT SNOW  24  23  96 VRB7      30.02F VSB 3/4 WCI  16
ANACONDA         N/A     28  19  69 CALM      30.07F
DEER LODGE       N/A     30  23  74 CALM      30.07F
HAMILTON         N/A     39  25  56 SE9       30.11F
PLAINS           N/A     40  30  67 CALM      30.11S
THOMPSON FALLS   N/A     38  31  76 SW5       30.16F
$$

MTZ008-052>055-140500-
SOUTHWEST MONTANA

CITY           SKY/WX    TMP DP  RH WIND       PRES   REMARKS
BOZEMAN        CLOUDY    30  23  75 E7        30.09F WCI  23
DILLON         CLOUDY    32  19  58 SW13      30.09F WCI  22
ENNIS          CLOUDY    36  16  44 SE16      30.16F WCI  26
TWIN BRIDGES     N/A     33  18  54 E8        30.08F WCI  26
$$

MTZ009-010-012-014-046-048-049-054-140500-
EAST SLOPES AND CENTRAL MONTANA

CITY           SKY/WX    TMP DP  RH WIND       PRES   REMARKS
CUT BANK       CLOUDY    36  23  59 W17       29.91F WCI  26
GREAT FALLS    CLOUDY    37  20  50 SW13      29.97F WCI  29
MALMSTROM AFB  CLOUDY    37  22  53 SW15      29.97F WCI  28
HELENA         CLOUDY    39  20  46 W6        30.04F
CHOTEAU          N/A     39  18  41 W16G22    29.94F WCI  30
CONRAD           N/A     34  26  72 SW3       29.95F
$$

MTZ011-013-016-021-045-047-050-051-140500-
NORTH CENTRAL MONTANA

CITY           SKY/WX    TMP DP  RH WIND       PRES   REMARKS
HAVRE          CLOUDY    37  26  64 SW13      29.93F WCI  29
LEWISTOWN      CLEAR     35  22  58 SW14      29.97F WCI  26
N BAR RANCH      N/A     34  19  55 W13G20    29.96F WCI  25
CHINOOK          N/A     32  27  80 W5        29.92F
$$

MTZ017>020-022>027-061-062-140500-
NORTHEAST MONTANA

CITY           SKY/WX    TMP DP  RH WIND       PRES   REMARKS
GLASGOW        CLEAR     32  28  85 NW5       29.87S
JORDAN           N/A     33  29  85 W7        29.91R WCI  27
SIDNEY         CLOUDY    34  28  80 NW16      29.83R WCI  23
WOLF POINT     MOCLDY    38  32  79 NW20G26   29.86R WCI  28
PLENTYWOOD       N/A     27  23  86 NW21G28   29.79R WCI  13
POPLAR           N/A     36  30  80 NW15G21   29.85R WCI  26
$$

MTZ028>42-056>058-140500-
SOUTHCENTRAL AND SOUTHEAST MONTANA

CITY           SKY/WX    TMP DP  RH WIND       PRES   REMARKS
BAKER          CLOUDY    37  32  82 W18G28    29.86R WCI  27
BILLINGS       PTCLDY    39  17  41 W14       30.01F WCI  31
LIVINGSTON     CLOUDY    38  17  42 W25G38    30.03F WCI  27
MILES CITY     CLEAR     37  30  75 W12       29.92R WCI  29
FORSYTH          N/A     39  28  65 W10       29.96R
LAUREL           N/A     41  17  38 W8        30.01R
ROUNDUP          N/A     39  20  47 W16       29.90F WCI  30
$$

REGIONAL REPORTS...DAKOTAS

CITY           SKY/WX    TMP DP  RH WIND       PRES   REMARKS
WILLISTON      CLOUDY    30  27  88 NW21G28   29.80R WCI  17
MINOT          LGT SNOW  18  11  74 SE7       29.80F WCI   9
DICKINSON      CLOUDY    34  32  92 W15       29.75R WCI  24
BEACH          CLOUDY    36  36 100 NW20G28   29.84R WCI  25
CROSBY         CLOUDY    19  19 100 SW8       29.79F FOG     WCI   9
TIOGA          CLOUDY    18  18 100 CALM      29.81S FOG
BISMARCK       CLOUDY    19  12  74 S15       29.87F WCI   5
GRAND FORKS    CLOUDY    14   3  61 S20       30.09F WCI  -3
FARGO          CLOUDY    14   0  53 S17G33    30.11F WCI  -3
BUFFALO SD       N/A     37  33  85 W18       29.77R WCI  27
RAPID CITY     CLOUDY    38  32  79 NW16      29.86R WCI  29
$$

REGIONAL REPORTS...WYOMING/IDAHO/WASHINGTON

CITY           SKY/WX    TMP DP  RH WIND       PRES   REMARKS
GILLETTE       PTCLDY    30  27  88 W12       29.99R WCI  20
SHERIDAN       CLEAR     37  18  44 W8        30.03R WCI  31
BUFFALO WY     CLEAR     38  16  40 NW20      30.03R WCI  28
CODY           CLOUDY    39  14  35 W21G31    30.07S WCI  29
YELLOWSTONE LA   N/A     23  15  71 VRB6      30.16S WCI  16
IDAHO FALLS    CLOUDY    35  26  69 S13       30.22F WCI  26
SALMON         CLOUDY    34  25  69 CALM      30.16S
BOISE          CLOUDY    43  29  57 SE6       30.25F
SPOKANE        LGT RAIN  38  35  89 S13       30.11F WCI  30
$$

REGIONAL REPORTS...ALBERTA

CITY           SKY/WX    TMP DP  RH WIND       PRES   REMARKS
EDMONTON       PTCLDY    32  23  69 SW7       29.70F WCI  26
CALGARY        MOCLDY    39  18  41 W5        29.77F
LETHBRIDGE     CLOUDY    37  27  65 SW18G24   29.86F WCI  27
MEDICINE HAT   CLEAR     30  28  93 S6        29.85F WCI  24
WATERTON GATE    N/A     36  23  60 SW10G23     N/A  WCI  28
CARDSTON         N/A     36  23  60 W9          N/A  WCI  29
ONEFOUR          N/A     34  25  69 W8          N/A  WCI  27
$$

REGIONAL REPORTS...SASKATCHEWAN

CITY           SKY/WX    TMP DP  RH WIND       PRES   REMARKS
SWIFT CURRENT  CLEAR     28  27  93 W16       29.79S WCI  17
REGINA         FLURRIES  23  21  93 NW15G22   29.77F WCI  10
SASKATOON      FLURRIES  21  19  93 SW9       29.77F WCI  11
VAL MARIE        N/A     34  28  80 W9          N/A  WCI  26
ROCKGLEN         N/A     30  30 100 NW20G28     N/A  WCI  18
ASSINIBOIA       N/A     28  25  86 SW7         N/A  WCI  21
$$



USA.gov is the U.S. government's official web portal to all federal, state and local government web resources and services.